Location: Ferintosh
(52.7647°N, 112.9692°W)
Time: 21:11:46
(UTC+00:00)

A-11 Canister half - Pass Details

Date: 28 May 2024
Orbit: 1524 x 1683 km, 47.3° (Epoch: 19 June)

Event Time Altitude Azimuth Distance (km) Brightness Sun altitude
Rises 04:51:43 0° 246° (WSW) 4,681 11.7 -8.2°
Reaches altitude 10° 04:54:46 10° 243° (WSW) 3,710 11.1 -8.5°
Maximum altitude 05:03:54 60° 167° (SSE) 1,760 9.1 -9.3°
Drops below altitude 10° 05:13:19 10° 91° (E) 3,823 10.8 -10.0°
Sets 05:16:31 0° 88° (E) 4,832 11.3 -10.3°
